Previsão horária em Shanghai

Hoje, 22 Junho, Terça-feira

Tempo Temperatura Precipitação Vento Pressão Humidade
00:00 +25°C° 0 mm 2 m/s 754 mmHg 68%
01:00 +24°C° 0 mm 2 m/s 753 mmHg 70%
02:00 +24°C° 0 mm 1 m/s 753 mmHg 71%
03:00 +24°C° 0 mm 1 m/s 753 mmHg 71%
04:00 +24°C° 0 mm 1 m/s 753 mmHg 71%
05:00 +24°C° 0 mm 1 m/s 753 mmHg 72%
06:00 +25°C° 0 mm 2 m/s 754 mmHg 66%
07:00 +27°C° 0 mm 2 m/s 754 mmHg 59%
08:00 +28°C° 0 mm 2 m/s 755 mmHg 55%
09:00 +29°C° 0 mm 3 m/s 755 mmHg 49%
10:00 +31°C° 0 mm 3 m/s 755 mmHg 44%
11:00 +33°C° 0 mm 3 m/s 755 mmHg 38%
12:00 +34°C° 0 mm 3 m/s 755 mmHg 36%
13:00 +34°C° 0 mm 4 m/s 755 mmHg 33%
14:00 +34°C° 0 mm 4 m/s 754 mmHg 31%
15:00 +34°C° 0 mm 4 m/s 754 mmHg 32%
16:00 +33°C° 0 mm 4 m/s 754 mmHg 33%
17:00 +32°C° 0 mm 4 m/s 754 mmHg 34%
18:00 +30°C° 0 mm 3 m/s 754 mmHg 39%
19:00 +29°C° 0 mm 3 m/s 755 mmHg 44%
20:00 +28°C° 0 mm 3 m/s 755 mmHg 49%
21:00 +27°C° 0 mm 2 m/s 755 mmHg 52%
22:00 +27°C° 0 mm 2 m/s 755 mmHg 55%
23:00 +26°C° 0 mm 2 m/s 756 mmHg 58%

Amanhã, 23 Junho, Quarta-feira

Tempo Temperatura Precipitação Vento Pressão Humidade
00:00 +26°C° 0 mm 2 m/s 755 mmHg 61%
01:00 +25°C° 0 mm 1 m/s 755 mmHg 63%
02:00 +25°C° 0 mm 1 m/s 755 mmHg 65%
03:00 +25°C° 0 mm 1 m/s 755 mmHg 66%
04:00 +24°C° 0 mm 1 m/s 755 mmHg 66%
05:00 +22°C° 0 mm 0 m/s 755 mmHg 67%
06:00 +26°C° 0 mm 1 m/s 755 mmHg 60%
07:00 +27°C° 0 mm 1 m/s 756 mmHg 52%
08:00 +29°C° 0 mm 1 m/s 756 mmHg 45%
09:00 +30°C° 0 mm 1 m/s 756 mmHg 41%
10:00 +32°C° 0 mm 2 m/s 756 mmHg 36%
11:00 +34°C° 0 mm 2 m/s 756 mmHg 32%
12:00 +34°C° 0 mm 3 m/s 756 mmHg 32%
13:00 +35°C° 0 mm 3 m/s 756 mmHg 31%
14:00 +35°C° 0 mm 3 m/s 755 mmHg 31%
15:00 +34°C° 0 mm 4 m/s 755 mmHg 33%
16:00 +34°C° 0 mm 4 m/s 755 mmHg 35%
17:00 +33°C° 0 mm 4 m/s 755 mmHg 37%
18:00 +32°C° 0 mm 4 m/s 756 mmHg 42%
19:00 +30°C° 0 mm 3 m/s 756 mmHg 47%
20:00 +29°C° 0 mm 3 m/s 756 mmHg 53%
21:00 +28°C° 0 mm 3 m/s 756 mmHg 56%
22:00 +28°C° 0 mm 3 m/s 756 mmHg 58%
23:00 +27°C° 0 mm 3 m/s 756 mmHg 61%

Depois de amanhã, 24 Junho, Quinta-feira

Tempo Temperatura Precipitação Vento Pressão Humidade
00:00 +27°C° 0 mm 3 m/s 756 mmHg 63%
01:00 +27°C° 0 mm 2 m/s 755 mmHg 65%
02:00 +26°C° 0 mm 2 m/s 755 mmHg 66%
03:00 +26°C° 0 mm 2 m/s 755 mmHg 69%
04:00 +26°C° 0 mm 2 m/s 755 mmHg 71%
05:00 +25°C° 0 mm 2 m/s 755 mmHg 73%
06:00 +27°C° 0 mm 2 m/s 755 mmHg 65%
07:00 +28°C° 0 mm 2 m/s 755 mmHg 57%
08:00 +29°C° 0 mm 3 m/s 756 mmHg 50%
09:00 +30°C° 0 mm 3 m/s 755 mmHg 46%
10:00 +31°C° 0 mm 3 m/s 755 mmHg 41%
11:00 +34°C° 0 mm 3 m/s 755 mmHg 37%
12:00 +34°C° 0 mm 4 m/s 755 mmHg 38%
13:00 +34°C° 0 mm 4 m/s 755 mmHg 38%
14:00 +34°C° 0 mm 5 m/s 754 mmHg 39%
15:00 +33°C° 0 mm 5 m/s 754 mmHg 41%
16:00 +32°C° 0 mm 5 m/s 754 mmHg 43%
17:00 +32°C° 0 mm 5 m/s 754 mmHg 46%
18:00 +30°C° 0 mm 5 m/s 754 mmHg 52%
19:00 +28°C° 0 mm 5 m/s 754 mmHg 59%
20:00 +27°C° 0 mm 4 m/s 755 mmHg 65%
21:00 +27°C° 0 mm 4 m/s 755 mmHg 68%
22:00 +27°C° 0 mm 4 m/s 755 mmHg 71%
23:00 +26°C° 0 mm 4 m/s 755 mmHg 74%

25 Junho, Sexta-feira

Tempo Temperatura Precipitação Vento Pressão Humidade
00:00 +26°C° 0 mm 4 m/s 754 mmHg 77%
01:00 +26°C° 0 mm 4 m/s 754 mmHg 79%
02:00 +26°C° 0 mm 4 m/s 754 mmHg 82%
03:00 +26°C° 0 mm 4 m/s 753 mmHg 83%
04:00 +25°C° 0 mm 4 m/s 753 mmHg 84%
05:00 +25°C° 0 mm 4 m/s 753 mmHg 85%
06:00 +26°C° 0 mm 4 m/s 754 mmHg 81%
07:00 +27°C° 0 mm 4 m/s 754 mmHg 77%
08:00 +28°C° 0 mm 5 m/s 754 mmHg 73%
09:00 +29°C° 0 mm 5 m/s 754 mmHg 66%
10:00 +30°C° 0 mm 6 m/s 753 mmHg 59%
11:00 +33°C° 0 mm 6 m/s 753 mmHg 52%
12:00 +33°C° 0 mm 6 m/s 753 mmHg 53%
13:00 +33°C° 0 mm 6 m/s 753 mmHg 54%
14:00 +33°C° 0 mm 6 m/s 752 mmHg 54%
15:00 +32°C° 0 mm 6 m/s 752 mmHg 58%
16:00 +32°C° 0 mm 7 m/s 752 mmHg 62%
17:00 +30°C° 0 mm 7 m/s 752 mmHg 66%
18:00 +29°C° 0 mm 7 m/s 752 mmHg 71%
19:00 +28°C° 0 mm 7 m/s 752 mmHg 75%
20:00 +27°C° 0 mm 7 m/s 753 mmHg 80%
21:00 +27°C° 0.3 mm 6 m/s 753 mmHg 81%
22:00 +27°C° 0.3 mm 6 m/s 753 mmHg 83%
23:00 +27°C° 0.3 mm 6 m/s 753 mmHg 85%

26 Junho, Sábado

Tempo Temperatura Precipitação Vento Pressão Humidade
00:00 +26°C° 0.7 mm 6 m/s 752 mmHg 86%
01:00 +26°C° 0.7 mm 6 m/s 752 mmHg 88%
02:00 +26°C° 0.7 mm 6 m/s 751 mmHg 89%
03:00 +26°C° 4 mm 6 m/s 751 mmHg 91%
04:00 +26°C° 4 mm 6 m/s 751 mmHg 92%
05:00 +26°C° 4 mm 6 m/s 750 mmHg 93%
06:00 +26°C° 4.4 mm 6 m/s 750 mmHg 93%
07:00 +26°C° 4.4 mm 6 m/s 750 mmHg 94%
08:00 +26°C° 4.4 mm 6 m/s 750 mmHg 95%
09:00 +26°C° 2.4 mm 5 m/s 750 mmHg 94%
10:00 +26°C° 2.4 mm 5 m/s 750 mmHg 94%
11:00 +26°C° 2.4 mm 5 m/s 750 mmHg 94%
12:00 +27°C° 0.1 mm 5 m/s 750 mmHg 90%
13:00 +27°C° 0.1 mm 4 m/s 750 mmHg 87%
14:00 +28°C° 0.1 mm 4 m/s 749 mmHg 83%
15:00 +29°C° 0.1 mm 4 m/s 749 mmHg 80%
16:00 +29°C° 0.1 mm 4 m/s 749 mmHg 76%
17:00 +30°C° 0.1 mm 4 m/s 749 mmHg 73%
18:00 +29°C° 0 mm 4 m/s 749 mmHg 78%
19:00 +28°C° 0 mm 4 m/s 750 mmHg 82%
20:00 +27°C° 0 mm 3 m/s 750 mmHg 87%
21:00 +27°C° 0 mm 3 m/s 750 mmHg 88%
22:00 +27°C° 0 mm 3 m/s 750 mmHg 88%
23:00 +26°C° 0 mm 3 m/s 750 mmHg 89%

27 Junho, Domingo

Tempo Temperatura Precipitação Vento Pressão Humidade
00:00 +26°C° 0 mm 3 m/s 750 mmHg 88%
01:00 +26°C° 0 mm 3 m/s 749 mmHg 88%
02:00 +25°C° 0 mm 3 m/s 749 mmHg 87%
03:00 +25°C° 0 mm 3 m/s 749 mmHg 87%
04:00 +25°C° 0 mm 3 m/s 749 mmHg 86%
05:00 +25°C° 0 mm 3 m/s 749 mmHg 86%
06:00 +25°C° 0 mm 3 m/s 749 mmHg 86%
07:00 +25°C° 0 mm 4 m/s 750 mmHg 85%
08:00 +25°C° 0 mm 4 m/s 750 mmHg 85%
09:00 +27°C° 0.1 mm 4 m/s 750 mmHg 79%
10:00 +28°C° 0.1 mm 4 m/s 750 mmHg 74%
11:00 +29°C° 0.1 mm 5 m/s 750 mmHg 69%
12:00 +29°C° 0.1 mm 5 m/s 750 mmHg 71%
13:00 +28°C° 0.1 mm 5 m/s 749 mmHg 72%
14:00 +28°C° 0.1 mm 5 m/s 749 mmHg 74%
15:00 +28°C° 0 mm 5 m/s 749 mmHg 74%
16:00 +28°C° 0 mm 5 m/s 749 mmHg 74%
17:00 +28°C° 0 mm 5 m/s 749 mmHg 74%
18:00 +27°C° 0 mm 5 m/s 750 mmHg 76%
19:00 +27°C° 0 mm 5 m/s 750 mmHg 79%
20:00 +26°C° 0 mm 4 m/s 750 mmHg 81%
21:00 +26°C° 0 mm 4 m/s 750 mmHg 83%
22:00 +26°C° 0 mm 4 m/s 751 mmHg 84%
23:00 +25°C° 0 mm 4 m/s 751 mmHg 85%
Mostrar mais

Necessitamos do seu Consentimento

A Meteoprog e os seus Fornecedores de Serviços podem armazenar e aceder a dados pessoais como cookies, identificadores do dispositivo ou outras tecnologias semelhantes existentes no seu dispositivo e processar estes dados para personalizar conteúdos e anúncios, assim como funcionalidades nas redes sociais e análise de tráfego.

  • Armazenar e/ou aceder a informações no seu dispositivo

    Os cookies, identificadores do dispositivo ou outras informações podem ser armazenados ou acedidos no seu dispositivo, para os fins acima indicados.

  • Anúncios e conteúdos personalizados, medição de anúncios e conteúdos, dados sobre o público-alvo e desenvolvimento de produtos

    Os anúncios e os conteúdos podem ser personalizados com base num perfil. Podem ser adicionados dados adicionais para uma maior personalização dos anúncios e dos conteúdos. A eficácia dos anúncios e dos conteúdos pode ser medida. Podem ser obtidas informações sobre o público que visualizou os anúncios e os conteúdos. Estes dados podem ser usados para desenvolver ou melhorar sistemas, softwares ou a experiência do utilizador.

Ao clicar em "Eu concordo”, permitirá o uso de cookies, identificadores do dispositivo e web beacons mencionados ou outras tecnologias semelhantes. As configurações do navegador do seu dispositivo podem ser alteradas.

Para certos fins, podem ser invocados interesses legítimos ao invés de consentimento. Pode ler mais informação sobre este assunto na nossa Política de Privacidade e Cookies.